Location: Betpouey
(42.8833°N, 0.0333°E)
Time: 21:56:01
(UTC+00:00)

H-2A R/B - Pass Details

Date: 01 December 2020
Orbit: 529 x 652 km, 98.3° (Epoch: 18 January)

Event Time Altitude Azimuth Distance (km) Brightness Sun altitude
Rises 17:41:26 0° 187° (S) 2,874 6.3 -13.4°
Reaches altitude 10° 17:43:48 10° 197° (SSW) 1,954 5.6 -13.8°
Maximum altitude 17:47:39 33° 262° (W) 1,001 4.4 -14.5°
Drops below altitude 10° 17:51:24 10° 327° (NNW) 1,900 5.3 -15.1°
Sets 17:53:41 0° 337° (NNW) 2,782 6.0 -15.5°
